Time,TemperatureF,DewpointF,PressureIn,WindDirection,WindDirectionDegrees,WindSpeedMPH,WindSpeedGustMPH,Humidity,HourlyPrecipIn,Conditions,Clouds,dailyrainin,SoftwareType,DateUTC
2013-01-09 00:00:00,37.0,18.2,30.48,NW,321,0.0,0.0,46,0.00,,,0.00,VWS V12.08,2013-01-09 05:00:00,
2013-01-09 00:05:00,37.0,18.2,30.47,NW,321,0.0,0.0,46,0.00,,,0.00,VWS V12.08,2013-01-09 05:05:00,
2013-01-09 00:11:00,37.2,18.4,30.50,North,0,0.0,0.0,46,0.00,,,0.00,VWS V12.08,2013-01-09 05:11:00,
2013-01-09 00:16:00,37.4,18.0,30.50,North,0,0.0,0.0,45,0.00,,,0.00,VWS V12.08,2013-01-09 05:16:00,
2013-01-09 00:20:00,37.4,18.0,30.50,North,0,0.0,0.0,45,0.00,,,0.00,VWS V12.08,2013-01-09 05:20:00,
2013-01-09 00:26:00,37.2,18.4,30.50,North,0,0.0,0.0,46,0.00,,,0.00,VWS V12.08,2013-01-09 05:26:00,
2013-01-09 00:31:00,37.0,18.2,30.50,North,0,0.0,0.0,46,0.00,,,0.00,VWS V12.08,2013-01-09 05:31:00,
2013-01-09 00:40:00,37.0,18.2,30.50,North,0,0.0,0.0,46,0.00,,,0.00,VWS V12.08,2013-01-09 05:40:00,
2013-01-09 00:41:00,37.0,18.2,30.50,North,0,0.0,0.0,46,0.00,,,0.00,VWS V12.08,2013-01-09 05:41:00,
2013-01-09 00:46:00,36.9,18.0,30.50,North,0,0.0,0.0,46,0.00,,,0.00,VWS V12.08,2013-01-09 05:46:00,
2013-01-09 00:56:00,36.9,18.0,30.50,North,0,0.0,0.0,46,0.00,,,0.00,VWS V12.08,2013-01-09 05:56:00,
2013-01-09 01:00:00,36.9,18.0,30.50,North,0,0.0,0.0,46,0.00,,,0.00,VWS V12.08,2013-01-09 06:00:00,
2013-01-09 01:04:00,36.9,18.0,30.50,North,0,0.0,0.0,46,0.00,,,0.00,VWS V12.08,2013-01-09 06:04:00,
2013-01-09 01:11:00,36.7,17.9,30.50,North,0,0.0,0.0,46,0.00,,,0.00,VWS V12.08,2013-01-09 06:11:00,
2013-01-09 01:17:00,36.7,17.9,30.50,North,0,0.0,0.0,46,0.00,,,0.00,VWS V12.08,2013-01-09 06:17:00,
2013-01-09 01:20:00,36.7,17.9,30.50,North,0,0.0,0.0,46,0.00,,,0.00,VWS V12.08,2013-01-09 06:20:00,
2013-01-09 01:26:00,36.3,17.5,30.50,North,0,0.0,0.0,46,0.00,,,0.00,VWS V12.08,2013-01-09 06:26:00,
2013-01-09 01:31:00,36.3,17.5,30.50,North,0,0.0,0.0,46,0.00,,,0.00,VWS V12.08,2013-01-09 06:31:00,
2013-01-09 01:40:00,36.0,17.2,30.50,North,0,0.0,0.0,46,0.00,,,0.00,VWS V12.08,2013-01-09 06:40:00,
2013-01-09 01:41:00,36.0,17.2,30.50,North,0,0.0,0.0,46,0.00,,,0.00,VWS V12.08,2013-01-09 06:41:00,
2013-01-09 01:47:00,35.8,17.0,30.50,North,0,0.0,0.0,46,0.00,,,0.00,VWS V12.08,2013-01-09 06:47:00,
2013-01-09 01:56:00,35.4,16.7,30.50,North,0,0.0,0.0,46,0.00,,,0.00,VWS V12.08,2013-01-09 06:56:00,
2013-01-09 02:00:00,35.2,16.5,30.50,North,0,0.0,0.0,46,0.00,,,0.00,VWS V12.08,2013-01-09 07:00:00,
2013-01-09 02:05:00,35.2,16.5,30.50,North,0,0.0,0.0,46,0.00,,,0.00,VWS V12.08,2013-01-09 07:05:00,
2013-01-09 02:11:00,35.1,16.4,30.50,North,0,0.0,0.0,46,0.00,,,0.00,VWS V12.08,2013-01-09 07:11:00,
2013-01-09 02:17:00,35.1,16.4,30.50,North,0,0.0,0.0,46,0.00,,,0.00,VWS V12.08,2013-01-09 07:17:00,
2013-01-09 02:26:00,34.9,16.2,30.50,North,0,0.0,0.0,46,0.00,,,0.00,VWS V12.08,2013-01-09 07:26:00,
2013-01-09 02:32:00,34.7,16.0,30.50,North,0,0.0,0.0,46,0.00,,,0.00,VWS V12.08,2013-01-09 07:32:00,
2013-01-09 02:41:00,34.5,15.9,30.50,North,0,0.0,0.0,46,0.00,,,0.00,VWS V12.08,2013-01-09 07:41:00,
2013-01-09 02:46:00,34.5,15.9,30.50,North,0,0.0,0.0,46,0.00,,,0.00,VWS V12.08,2013-01-09 07:46:00,
2013-01-09 02:56:00,34.3,15.7,30.50,North,0,0.0,0.0,46,0.00,,,0.00,VWS V12.08,2013-01-09 07:56:00,
2013-01-09 03:05:00,34.5,15.9,30.50,North,0,0.0,0.0,46,0.00,,,0.00,VWS V12.08,2013-01-09 08:05:00,
2013-01-09 03:10:00,34.3,15.7,30.50,North,0,0.0,0.0,46,0.00,,,0.00,VWS V12.08,2013-01-09 08:10:00,
2013-01-09 03:16:00,34.3,15.7,30.50,North,0,0.0,0.0,46,0.00,,,0.00,VWS V12.08,2013-01-09 08:16:00,
2013-01-09 03:25:00,34.3,16.2,30.50,North,0,0.0,0.0,47,0.00,,,0.00,VWS V12.08,2013-01-09 08:25:00,
2013-01-09 03:31:00,34.3,16.2,30.50,North,0,0.0,0.0,47,0.00,,,0.00,VWS V12.08,2013-01-09 08:31:00,
2013-01-09 03:40:00,34.3,16.2,30.50,North,0,0.0,0.0,47,0.00,,,0.00,VWS V12.08,2013-01-09 08:40:00,
2013-01-09 03:46:00,34.5,16.4,30.50,North,0,0.0,0.0,47,0.00,,,0.00,VWS V12.08,2013-01-09 08:46:00,
2013-01-09 03:55:00,34.5,16.4,30.50,North,0,0.0,0.0,47,0.00,,,0.00,VWS V12.08,2013-01-09 08:55:00,
2013-01-09 04:04:00,34.3,15.7,30.50,North,0,0.0,0.0,46,0.00,,,0.00,VWS V12.08,2013-01-09 09:04:00,
2013-01-09 04:10:00,34.2,15.6,30.50,North,0,0.0,0.0,46,0.00,,,0.00,VWS V12.08,2013-01-09 09:10:00,
2013-01-09 04:16:00,34.0,15.4,30.50,North,0,0.0,0.0,46,0.00,,,0.00,VWS V12.08,2013-01-09 09:16:00,
2013-01-09 04:25:00,33.8,15.7,30.50,North,0,0.0,0.0,47,0.00,,,0.00,VWS V12.08,2013-01-09 09:25:00,
2013-01-09 04:31:00,34.0,15.4,30.50,North,0,0.0,0.0,46,0.00,,,0.00,VWS V12.08,2013-01-09 09:31:00,
2013-01-09 04:40:00,33.8,15.2,30.47,North,0,0.0,0.0,46,0.00,,,0.00,VWS V12.08,2013-01-09 09:40:00,
2013-01-09 04:46:00,33.6,15.6,30.47,North,0,0.0,0.0,47,0.00,,,0.00,VWS V12.08,2013-01-09 09:46:00,
2013-01-09 04:55:00,33.4,15.4,30.50,North,0,0.0,0.0,47,0.00,,,0.00,VWS V12.08,2013-01-09 09:55:00,
2013-01-09 05:06:00,33.3,15.2,30.50,North,0,0.0,0.0,47,0.00,,,0.00,VWS V12.08,2013-01-09 10:06:00,
2013-01-09 05:16:00,33.1,15.1,30.50,North,0,0.0,0.0,47,0.00,,,0.00,VWS V12.08,2013-01-09 10:16:00,
2013-01-09 05:25:00,32.9,14.9,30.47,North,0,0.0,0.0,47,0.00,,,0.00,VWS V12.08,2013-01-09 10:25:00,
2013-01-09 05:31:00,32.9,14.9,30.47,North,0,0.0,0.0,47,0.00,,,0.00,VWS V12.08,2013-01-09 10:31:00,
2013-01-09 05:40:00,32.7,14.7,30.47,North,0,0.0,0.0,47,0.00,,,0.00,VWS V12.08,2013-01-09 10:40:00,
2013-01-09 05:46:00,32.7,14.7,30.47,North,0,0.0,0.0,47,0.00,,,0.00,VWS V12.08,2013-01-09 10:46:00,
2013-01-09 05:55:00,32.9,14.9,30.50,North,0,0.0,0.0,47,0.00,,,0.00,VWS V12.08,2013-01-09 10:55:00,
2013-01-09 06:04:00,32.9,14.9,30.50,North,0,0.0,0.0,47,0.00,,,0.00,VWS V12.08,2013-01-09 11:04:00,
2013-01-09 06:10:00,32.9,14.9,30.50,North,0,0.0,0.0,47,0.00,,,0.00,VWS V12.08,2013-01-09 11:10:00,
2013-01-09 06:16:00,32.9,14.9,30.50,North,0,0.0,0.0,47,0.00,,,0.00,VWS V12.08,2013-01-09 11:16:00,
2013-01-09 06:25:00,32.7,14.7,30.50,North,0,0.0,0.0,47,0.00,,,0.00,VWS V12.08,2013-01-09 11:25:00,
2013-01-09 06:31:00,32.7,14.7,30.50,North,0,0.0,0.0,47,0.00,,,0.00,VWS V12.08,2013-01-09 11:31:00,
2013-01-09 06:40:00,32.7,14.7,30.50,North,0,0.0,0.0,47,0.00,,,0.00,VWS V12.08,2013-01-09 11:40:00,
2013-01-09 06:46:00,32.7,14.7,30.50,North,0,0.0,0.0,47,0.00,,,0.00,VWS V12.08,2013-01-09 11:46:00,
2013-01-09 06:55:00,32.9,14.9,30.50,North,0,0.0,0.0,47,0.00,,,0.00,VWS V12.08,2013-01-09 11:55:00,
2013-01-09 07:05:00,32.9,14.9,30.50,North,0,0.0,0.0,47,0.00,,,0.00,VWS V12.08,2013-01-09 12:05:00,
2013-01-09 07:11:00,32.7,14.7,30.50,North,0,0.0,0.0,47,0.00,,,0.00,VWS V12.08,2013-01-09 12:11:00,
2013-01-09 07:16:00,32.7,14.7,30.50,North,0,0.0,0.0,47,0.00,,,0.00,VWS V12.08,2013-01-09 12:16:00,
2013-01-09 07:21:00,32.7,14.7,30.53,North,0,0.0,0.0,47,0.00,,,0.00,VWS V12.08,2013-01-09 12:21:00,
2013-01-09 07:32:00,32.7,14.7,30.53,North,0,0.0,0.0,47,0.00,,,0.00,VWS V12.08,2013-01-09 12:32:00,
2013-01-09 07:41:00,32.7,14.7,30.53,North,0,0.0,0.0,47,0.00,,,0.00,VWS V12.08,2013-01-09 12:41:00,
2013-01-09 07:46:00,32.5,14.6,30.53,North,0,0.0,0.0,47,0.00,,,0.00,VWS V12.08,2013-01-09 12:46:00,
2013-01-09 07:56:00,32.4,14.4,30.50,North,0,0.0,0.0,47,0.00,,,0.00,VWS V12.08,2013-01-09 12:56:00,
2013-01-09 08:05:00,32.5,14.6,30.50,North,0,0.0,0.0,47,0.00,,,0.00,VWS V12.08,2013-01-09 13:05:00,
2013-01-09 08:11:00,32.7,14.7,30.53,North,0,0.0,0.0,47,0.00,,,0.00,VWS V12.08,2013-01-09 13:11:00,
2013-01-09 08:16:00,32.9,14.9,30.53,North,0,0.0,0.0,47,0.00,,,0.00,VWS V12.08,2013-01-09 13:16:00,
2013-01-09 08:26:00,33.1,15.1,30.53,North,0,0.0,0.0,47,0.00,,,0.00,VWS V12.08,2013-01-09 13:26:00,
2013-01-09 08:31:00,33.3,15.2,30.53,North,0,0.0,0.0,47,0.00,,,0.00,VWS V12.08,2013-01-09 13:31:00,
2013-01-09 08:41:00,33.6,15.6,30.53,North,0,0.0,0.0,47,0.00,,,0.00,VWS V12.08,2013-01-09 13:41:00,
2013-01-09 08:47:00,33.8,15.7,30.53,North,0,0.0,0.0,47,0.00,,,0.00,VWS V12.08,2013-01-09 13:47:00,
2013-01-09 08:56:00,34.2,16.0,30.50,North,0,0.0,0.0,47,0.00,,,0.00,VWS V12.08,2013-01-09 13:56:00,
2013-01-09 09:08:00,34.3,16.2,30.50,North,0,0.0,0.0,47,0.00,,,0.00,VWS V12.08,2013-01-09 14:08:00,
2013-01-09 09:17:00,35.1,17.4,30.50,North,0,0.0,0.0,48,0.00,,,0.00,VWS V12.08,2013-01-09 14:17:00,
2013-01-09 09:26:00,35.6,17.4,30.50,North,0,0.0,0.0,47,0.00,,,0.00,VWS V12.08,2013-01-09 14:26:00,
2013-01-09 09:31:00,36.1,18.4,30.50,North,0,0.0,0.0,48,0.00,,,0.00,VWS V12.08,2013-01-09 14:31:00,
2013-01-09 09:41:00,36.9,19.0,30.53,North,0,0.0,0.0,48,0.00,,,0.00,VWS V12.08,2013-01-09 14:41:00,
2013-01-09 09:47:00,37.4,19.5,30.53,North,357,0.0,0.0,48,0.00,,,0.00,VWS V12.08,2013-01-09 14:47:00,
2013-01-09 09:56:00,37.9,20.0,30.50,North,357,0.0,0.0,48,0.00,,,0.00,VWS V12.08,2013-01-09 14:56:00,
2013-01-09 10:06:00,38.5,21.0,30.50,SSE,151,0.0,0.0,49,0.00,,,0.00,VWS V12.08,2013-01-09 15:06:00,
2013-01-09 10:16:00,41.0,22.8,30.50,South,172,0.0,0.0,48,0.00,,,0.00,VWS V12.08,2013-01-09 15:16:00,
2013-01-09 10:45:00,43.9,25.5,30.50,SSE,168,0.0,3.1,48,0.00,,,0.00,VWS V12.08,2013-01-09 15:45:00,
2013-01-09 10:55:00,44.1,25.6,30.47,SSE,159,0.0,3.1,48,0.00,,,0.00,VWS V12.08,2013-01-09 15:55:00,
2013-01-09 11:04:00,43.9,25.0,30.47,SSE,162,0.0,3.1,47,0.00,,,0.00,VWS V12.08,2013-01-09 16:04:00,
2013-01-09 11:10:00,43.9,25.0,30.47,SSE,151,0.0,3.1,47,0.00,,,0.00,VWS V12.08,2013-01-09 16:10:00,
2013-01-09 11:16:00,44.1,25.1,30.47,SSW,207,0.0,3.1,47,0.00,,,0.00,VWS V12.08,2013-01-09 16:16:00,
2013-01-09 11:25:00,44.1,25.1,30.45,SE,134,3.1,4.0,47,0.00,,,0.00,VWS V12.08,2013-01-09 16:25:00,
2013-01-09 11:31:00,44.2,25.3,30.45,SSE,154,2.7,4.0,47,0.00,,,0.00,VWS V12.08,2013-01-09 16:31:00,
2013-01-09 11:40:00,44.1,25.1,30.45,SW,229,2.2,4.0,47,0.00,,,0.00,VWS V12.08,2013-01-09 16:40:00,
2013-01-09 11:46:00,44.1,25.1,30.45,West,277,0.0,4.0,47,0.00,,,0.00,VWS V12.08,2013-01-09 16:46:00,
2013-01-09 11:55:00,43.7,24.8,30.42,WSW,253,0.0,4.0,47,0.00,,,0.00,VWS V12.08,2013-01-09 16:55:00,
2013-01-09 12:04:00,43.7,24.8,30.42,WSW,253,0.0,4.0,47,0.00,,,0.00,VWS V12.08,2013-01-09 17:04:00,
2013-01-09 12:10:00,43.9,25.5,30.42,SW,222,0.0,4.9,48,0.00,,,0.00,VWS V12.08,2013-01-09 17:10:00,
2013-01-09 12:16:00,44.1,25.6,30.42,SSE,167,0.0,4.9,48,0.00,,,0.00,VWS V12.08,2013-01-09 17:16:00,
2013-01-09 12:25:00,44.4,26.0,30.39,South,176,0.0,4.0,48,0.00,,,0.00,VWS V12.08,2013-01-09 17:25:00,
2013-01-09 12:31:00,44.6,26.1,30.39,SW,214,3.1,4.0,48,0.00,,,0.00,VWS V12.08,2013-01-09 17:31:00,
2013-01-09 12:40:00,44.8,26.3,30.39,SSE,159,0.0,4.0,48,0.00,,,0.00,VWS V12.08,2013-01-09 17:40:00,
2013-01-09 12:46:00,44.6,26.1,30.39,SW,220,0.0,4.0,48,0.00,,,0.00,VWS V12.08,2013-01-09 17:46:00,
2013-01-09 12:55:00,44.6,26.1,30.36,NNW,341,0.0,4.0,48,0.00,,,0.00,VWS V12.08,2013-01-09 17:55:00,
2013-01-09 13:04:00,44.6,26.1,30.36,South,187,2.2,4.0,48,0.00,,,0.00,VWS V12.08,2013-01-09 18:04:00,
2013-01-09 13:10:00,44.8,26.3,30.36,SSW,196,0.0,4.9,48,0.00,,,0.00,VWS V12.08,2013-01-09 18:10:00,
2013-01-09 13:16:00,44.8,26.3,30.36,SSW,204,2.7,5.8,48,0.00,,,0.00,VWS V12.08,2013-01-09 18:16:00,
2013-01-09 13:25:00,44.8,26.3,30.33,SSE,150,2.7,4.9,48,0.00,,,0.00,VWS V12.08,2013-01-09 18:25:00,
2013-01-09 13:31:00,44.6,26.1,30.33,SW,221,0.0,4.9,48,0.00,,,0.00,VWS V12.08,2013-01-09 18:31:00,
2013-01-09 13:41:00,44.6,26.1,30.33,SSW,203,2.7,4.9,48,0.00,,,0.00,VWS V12.08,2013-01-09 18:41:00,
2013-01-09 13:42:00,44.6,26.1,30.33,SW,214,2.7,3.1,48,0.00,,,0.00,VWS V12.08,2013-01-09 18:42:00,
2013-01-09 13:46:00,44.6,26.1,30.33,SW,224,3.6,3.6,48,0.00,,,0.00,VWS V12.08,2013-01-09 18:46:00,
2013-01-09 13:50:00,44.6,26.1,30.33,SSW,200,2.2,4.9,48,0.00,,,0.00,VWS V12.08,2013-01-09 18:50:00,
2013-01-09 13:56:00,44.8,26.3,30.33,SW,231,2.2,4.9,48,0.00,,,0.00,VWS V12.08,2013-01-09 18:56:00,
2013-01-09 14:05:00,44.8,26.3,30.33,South,178,3.6,4.9,48,0.00,,,0.00,VWS V12.08,2013-01-09 19:05:00,
2013-01-09 14:11:00,44.8,26.3,30.33,SW,217,2.2,4.9,48,0.00,,,0.00,VWS V12.08,2013-01-09 19:11:00,
2013-01-09 14:16:00,44.8,26.3,30.33,SSW,202,3.1,5.4,48,0.00,,,0.00,VWS V12.08,2013-01-09 19:16:00,
2013-01-09 14:25:00,44.6,26.1,30.33,SSW,204,0.0,2.2,48,0.00,,,0.00,VWS V12.08,2013-01-09 19:25:00,
2013-01-09 14:31:00,44.6,26.1,30.33,SSW,209,0.0,4.9,48,0.00,,,0.00,VWS V12.08,2013-01-09 19:31:00,
2013-01-09 14:41:00,44.8,26.3,30.33,SSW,203,0.0,4.9,48,0.00,,,0.00,VWS V12.08,2013-01-09 19:41:00,
2013-01-09 14:46:00,44.8,26.3,30.33,SSW,204,0.0,2.7,48,0.00,,,0.00,VWS V12.08,2013-01-09 19:46:00,
2013-01-09 14:56:00,45.0,26.5,30.33,SSW,194,0.0,3.6,48,0.00,,,0.00,VWS V12.08,2013-01-09 19:56:00,
2013-01-09 15:05:00,45.0,26.5,30.33,SSE,152,0.0,3.6,48,0.00,,,0.00,VWS V12.08,2013-01-09 20:05:00,
2013-01-09 15:11:00,45.0,27.0,30.33,South,176,2.2,3.1,49,0.00,,,0.00,VWS V12.08,2013-01-09 20:11:00,
2013-01-09 15:16:00,45.0,27.0,30.33,East,94,0.0,3.6,49,0.00,,,0.00,VWS V12.08,2013-01-09 20:16:00,
2013-01-09 15:26:00,44.8,26.8,30.30,SSE,154,0.0,4.0,49,0.00,,,0.00,VWS V12.08,2013-01-09 20:26:00,
2013-01-09 15:32:00,44.8,26.8,30.30,South,189,0.0,4.0,49,0.00,,,0.00,VWS V12.08,2013-01-09 20:32:00,
2013-01-09 15:41:00,44.8,26.8,30.30,SE,137,0.0,4.0,49,0.00,,,0.00,VWS V12.08,2013-01-09 20:41:00,
2013-01-09 15:47:00,44.6,26.6,30.30,SW,235,0.0,3.1,49,0.00,,,0.00,VWS V12.08,2013-01-09 20:47:00,
2013-01-09 15:56:00,44.6,26.6,30.27,SSE,166,2.2,3.1,49,0.00,,,0.00,VWS V12.08,2013-01-09 20:56:00,
2013-01-09 16:05:00,44.4,26.5,30.27,SSW,209,0.0,3.6,49,0.00,,,0.00,VWS V12.08,2013-01-09 21:05:00,
2013-01-09 16:11:00,44.2,26.3,30.27,SE,143,0.0,3.1,49,0.00,,,0.00,VWS V12.08,2013-01-09 21:11:00,
2013-01-09 16:16:00,44.2,26.3,30.27,SW,214,0.0,3.1,49,0.00,,,0.00,VWS V12.08,2013-01-09 21:16:00,
2013-01-09 16:26:00,44.1,26.6,30.27,WSW,237,0.0,0.0,50,0.00,,,0.00,VWS V12.08,2013-01-09 21:26:00,
2013-01-09 16:31:00,44.1,26.6,30.27,West,273,0.0,2.7,50,0.00,,,0.00,VWS V12.08,2013-01-09 21:31:00,
2013-01-09 16:41:00,43.9,26.5,30.27,WSW,252,0.0,2.7,50,0.00,,,0.00,VWS V12.08,2013-01-09 21:41:00,
2013-01-09 16:47:00,43.9,26.5,30.27,SSW,197,0.0,2.7,50,0.00,,,0.00,VWS V12.08,2013-01-09 21:47:00,
2013-01-09 16:56:00,43.9,26.5,30.24,South,181,0.0,2.7,50,0.00,,,0.00,VWS V12.08,2013-01-09 21:56:00,
2013-01-09 17:05:00,43.9,26.5,30.24,SSW,194,0.0,2.7,50,0.00,,,0.00,VWS V12.08,2013-01-09 22:05:00,
2013-01-09 17:11:00,43.9,26.5,30.21,SSW,208,0.0,2.2,50,0.00,,,0.00,VWS V12.08,2013-01-09 22:11:00,
2013-01-09 17:17:00,43.9,26.5,30.21,South,171,0.0,3.1,50,0.00,,,0.00,VWS V12.08,2013-01-09 22:17:00,
2013-01-09 17:26:00,44.1,26.6,30.18,SSE,150,0.0,4.0,50,0.00,,,0.00,VWS V12.08,2013-01-09 22:26:00,
2013-01-09 17:35:00,44.1,26.6,30.18,South,186,0.0,4.0,50,0.00,,,0.00,VWS V12.08,2013-01-09 22:35:00,
2013-01-09 17:40:00,44.2,27.3,30.18,SW,232,0.0,4.0,51,0.00,,,0.00,VWS V12.08,2013-01-09 22:40:00,
2013-01-09 17:46:00,44.2,27.3,30.18,SSE,160,3.1,6.3,51,0.00,,,0.00,VWS V12.08,2013-01-09 22:46:00,
2013-01-09 17:55:00,44.6,27.6,30.12,SW,217,2.7,6.3,51,0.00,,,0.00,VWS V12.08,2013-01-09 22:55:00,
2013-01-09 18:04:00,44.8,28.2,30.12,SE,129,4.0,6.3,52,0.00,,,0.00,VWS V12.08,2013-01-09 23:04:00,
2013-01-09 18:10:00,45.0,28.4,30.12,NNE,32,2.7,4.9,52,0.00,,,0.00,VWS V12.08,2013-01-09 23:10:00,
2013-01-09 18:16:00,45.1,29.5,30.12,NNW,341,4.0,6.3,54,0.00,,,0.00,VWS V12.08,2013-01-09 23:16:00,
2013-01-09 18:25:00,45.3,29.7,30.18,NNW,327,2.7,4.0,54,0.00,,,0.00,VWS V12.08,2013-01-09 23:25:00,
2013-01-09 18:31:00,45.5,29.4,30.18,WSW,237,3.1,6.3,53,0.00,,,0.00,VWS V12.08,2013-01-09 23:31:00,
2013-01-09 18:40:00,45.7,30.5,30.15,NW,312,5.4,6.7,55,0.00,,,0.00,VWS V12.08,2013-01-09 23:40:00,
2013-01-09 18:46:00,45.9,30.6,30.15,SSW,209,3.1,7.2,55,0.00,,,0.00,VWS V12.08,2013-01-09 23:46:00,
2013-01-09 18:55:00,45.7,30.5,30.15,North,3,4.0,7.2,55,0.00,,,0.00,VWS V12.08,2013-01-09 23:55:00,
2013-01-09 19:06:00,45.7,30.5,30.15,West,272,2.7,7.2,55,0.00,,,0.00,VWS V12.08,2013-01-10 00:06:00,
2013-01-09 19:16:00,45.3,29.7,30.15,East,94,0.0,5.4,54,0.00,,,0.00,VWS V12.08,2013-01-10 00:16:00,
2013-01-09 19:21:00,45.3,30.1,30.15,SW,223,0.0,2.7,55,0.00,,,0.00,VWS V12.08,2013-01-10 00:21:00,
2013-01-09 19:31:00,45.3,29.7,30.15,WNW,292,2.7,4.0,54,0.00,,,0.00,VWS V12.08,2013-01-10 00:31:00,
2013-01-09 19:40:00,45.3,30.1,30.15,SW,232,2.7,4.9,55,0.00,,,0.00,VWS V12.08,2013-01-10 00:40:00,
2013-01-09 19:46:00,45.3,30.1,30.15,West,269,3.1,4.0,55,0.00,,,0.00,VWS V12.08,2013-01-10 00:46:00,
2013-01-09 19:55:00,45.3,30.1,30.15,WNW,284,3.6,5.4,55,0.00,,,0.00,VWS V12.08,2013-01-10 00:55:00,
2013-01-09 20:04:00,45.3,30.6,30.15,SW,224,3.6,5.4,56,0.00,,,0.00,VWS V12.08,2013-01-10 01:04:00,
2013-01-09 20:10:00,45.5,31.2,30.15,NW,305,2.7,10.1,57,0.00,,,0.00,VWS V12.08,2013-01-10 01:10:00,
2013-01-09 20:16:00,45.9,32.4,30.15,West,280,4.0,10.1,59,0.00,,,0.00,VWS V12.08,2013-01-10 01:16:00,
2013-01-09 20:25:00,46.4,33.3,30.12,NW,312,6.3,6.3,60,0.00,,,0.00,VWS V12.08,2013-01-10 01:25:00,
2013-01-09 20:31:00,46.4,33.3,30.12,WNW,300,5.4,8.3,60,0.00,,,0.00,VWS V12.08,2013-01-10 01:31:00,
2013-01-09 20:40:00,46.6,33.5,30.12,WSW,254,5.4,12.3,60,0.00,,,0.00,VWS V12.08,2013-01-10 01:40:00,
2013-01-09 20:46:00,46.6,32.6,30.12,NNW,333,3.1,5.4,58,0.00,,,0.00,VWS V12.08,2013-01-10 01:46:00,
2013-01-09 20:55:00,46.4,32.4,30.12,SSW,213,6.3,7.6,58,0.00,,,0.00,VWS V12.08,2013-01-10 01:55:00,
2013-01-09 21:04:00,46.6,32.2,30.12,West,279,5.8,8.3,57,0.00,,,0.00,VWS V12.08,2013-01-10 02:04:00,
2013-01-09 21:11:00,46.6,31.3,30.12,WSW,257,4.9,8.7,55,0.00,,,0.00,VWS V12.08,2013-01-10 02:11:00,
2013-01-09 21:16:00,46.4,30.7,30.12,NW,320,5.4,10.1,54,0.00,,,0.00,VWS V12.08,2013-01-10 02:16:00,
2013-01-09 21:21:00,46.4,30.7,30.12,NNW,341,3.6,7.6,54,0.00,,,0.00,VWS V12.08,2013-01-10 02:21:00,
2013-01-09 21:31:00,46.2,30.0,30.12,WSW,253,3.6,10.1,53,0.00,,,0.00,VWS V12.08,2013-01-10 02:31:00,
2013-01-09 21:41:00,46.2,29.6,30.12,WSW,245,3.6,13.2,52,0.00,,,0.00,VWS V12.08,2013-01-10 02:41:00,
2013-01-09 21:46:00,46.2,29.6,30.12,WSW,245,6.3,8.1,52,0.00,,,0.00,VWS V12.08,2013-01-10 02:46:00,
2013-01-09 21:55:00,46.0,29.4,30.12,NW,304,4.0,8.7,52,0.00,,,0.00,VWS V12.08,2013-01-10 02:55:00,
2013-01-09 22:04:00,46.0,28.9,30.12,NW,318,3.6,8.7,51,0.00,,,0.00,VWS V12.08,2013-01-10 03:04:00,
2013-01-09 22:11:00,45.9,28.8,30.12,NW,309,4.9,8.7,51,0.00,,,0.00,VWS V12.08,2013-01-10 03:11:00,
2013-01-09 22:16:00,45.7,28.1,30.12,NW,320,5.8,8.7,50,0.00,,,0.00,VWS V12.08,2013-01-10 03:16:00,
2013-01-09 22:26:00,45.5,28.0,30.12,WSW,248,5.4,8.1,50,0.00,,,0.00,VWS V12.08,2013-01-10 03:26:00,
2013-01-09 22:31:00,45.5,28.0,30.12,NW,322,5.8,8.7,50,0.00,,,0.00,VWS V12.08,2013-01-10 03:31:00,
2013-01-09 22:41:00,45.3,27.3,30.12,WNW,288,4.0,8.7,49,0.00,,,0.00,VWS V12.08,2013-01-10 03:41:00,
2013-01-09 22:46:00,45.3,27.3,30.12,NW,325,7.2,8.1,49,0.00,,,0.00,VWS V12.08,2013-01-10 03:46:00,
2013-01-09 22:56:00,45.3,26.8,30.15,WNW,288,5.4,11.0,48,0.00,,,0.00,VWS V12.08,2013-01-10 03:56:00,
2013-01-09 23:04:00,45.3,27.3,30.15,WSW,250,3.1,11.0,49,0.00,,,0.00,VWS V12.08,2013-01-10 04:04:00,
2013-01-09 23:11:00,45.1,26.6,30.12,WSW,238,4.0,8.7,48,0.00,,,0.00,VWS V12.08,2013-01-10 04:11:00,
2013-01-09 23:16:00,45.0,26.5,30.12,WSW,247,3.6,8.7,48,0.00,,,0.00,VWS V12.08,2013-01-10 04:16:00,
2013-01-09 23:26:00,45.0,26.5,30.12,West,259,3.1,7.2,48,0.00,,,0.00,VWS V12.08,2013-01-10 04:26:00,
2013-01-09 23:31:00,45.0,26.5,30.12,WNW,291,3.1,7.6,48,0.00,,,0.00,VWS V12.08,2013-01-10 04:31:00,
2013-01-09 23:41:00,44.8,25.8,30.15,WSW,253,4.9,10.1,47,0.00,,,0.00,VWS V12.08,2013-01-10 04:41:00,
2013-01-09 23:46:00,44.8,25.8,30.15,West,276,3.6,9.2,47,0.00,,,0.00,VWS V12.08,2013-01-10 04:46:00,
2013-01-09 23:56:00,44.6,25.1,30.15,NW,307,6.3,9.2,46,0.00,,,0.00,VWS V12.08,2013-01-10 04:56:00,